Home   Weather   Adamstown   Past weeks

Flag for Pitcairn Islands Past Weather in Adamstown, Pitcairn Islands — Yesterday and Last 2 Weeks

Now
79 °F

Passing clouds.


Feels Like: 81 °F
Forecast: 74 / 80 °F
Wind: 12 mph from Southeast

Location: Rikitea

Current Time: Apr 25, 2017 at 12:52:37 pm

Latest Report: Apr 25, 2017 at 12:00 pm


Visibility: 25 mi

Pressure: 30.12 "Hg

Humidity: 76%

Dew Point: 70 °F

Location of AdamstownLocation

Past Weather in Adamstown — Graph

°F

Adamstown Temperature Yesterday

Maximum temperature yesterday: 76 °F (at 10:00 am)
Minimum temperature yesterday: 72 °F (at 4:00 am)
Average temperature yesterday: 74 °F

High & Low Weather Summary for the Past Weeks

 TemperatureHumidityPressure
High85 °F (Apr 13, 1:00 pm)96% (Apr 15, 1:00 pm)30.13 "Hg (Apr 15, 1:00 pm)
Low68 °F (Apr 16, 4:00 am)55% (Apr 18, 1:00 pm)29.69 "Hg (Apr 14, 5:00 pm)
Average76 °F77%29.95 "Hg
* Reported Apr 10 10:00 am — Apr 25 10:00 am, Adamstown, Weather by CustomWeather, © 2017

Note: Actual official high and low records may vary slightly from our data, if they occured in-between our weather recording intervals... More about our weather records

Advertising

Adamstown Weather History for the Previous 24 Hours

Scroll right to see more
 ConditionsComfort  
Time TempWeatherWind HumidityBarometerVisibility
10:00 am
Tue, Apr 25
78 °FPassing clouds.12 mph77%30.13 "Hg25 mi
9:00 am77 °FPassing clouds.12 mph80%30.12 "Hg25 mi
8:00 am76 °FPassing clouds.12 mph81%30.11 "Hg19 mi
7:00 am75 °FPassing clouds.10 mph84%30.09 "Hg19 mi
6:00 am74 °FMild.10 mph88%30.08 "HgN/A
5:00 am76 °FMild.10 mph83%30.07 "HgN/A
4:00 am75 °FMild.9 mph83%30.08 "HgN/A
3:00 am75 °FMild.7 mph87%30.09 "HgN/A
2:00 am75 °FMild.7 mph86%30.09 "HgN/A
1:00 am76 °FMild.9 mph84%30.10 "HgN/A
12:00 am76 °FMild.8 mph81%30.11 "HgN/A
10:00 pm
Mon, Apr 24
75 °FMild.10 mph82%30.10 "HgN/A
9:00 pm75 °FMild.9 mph81%30.09 "HgN/A
8:00 pm74 °FMild.8 mph81%30.07 "HgN/A
7:00 pm74 °FMild.5 mph84%30.05 "HgN/A
6:00 pm75 °FMild.5 mph85%30.03 "HgN/A
5:00 pm75 °FPartly sunny.9 mph82%30.02 "Hg19 mi
4:00 pm75 °FOvercast.7 mph86%30.03 "Hg12 mi
3:00 pm75 °FSprinkles. Overcast.2 mph87%30.01 "Hg12 mi
2:00 pm74 °FThunderstorms. Partly sunny.7 mph85%30.05 "Hg12 mi
1:00 pm74 °FThunderstorms. Partly sunny.6 mph84%30.05 "Hg12 mi
Weather by CustomWeather, © 2017

See weather overviewHow to use our weather pages